Theta_e
321 319 318 317 317 319 318 317 317 315 316 317 316 316 317 320 318 317 317 318 318 318 320 319 317 316 319 319 317 317 319 320 319 319 317 316 317 315 316 316 317 317 313 310 314 314 314 312 315 320 322 323 324 324 324 324 324 325 325 327 325 323 322
319 319 320 320 318 318 316 314 315 314 314 313 315 316 315 319 321 318 317 318 318 317 318 317 314 315 315 316 317 317 317 316 316 316 317 314 313 314 315 314 316 314 315 315 314 313 313 313 313 314 316 322 323 323 323 325 325 326 324 321 320 318 318
319 319 318 316 315 315 315 313 313 313 313 313 313 312 314 316 318 319 318 317 315 316 317 314 314 314 314 314 313 314 315 315 314 317 317 314 314 313 314 315 314 312 314 313 311 313 312 311 313 313 315 316 315 318 323 323 322 321 318 317 315 315 315
318 318 316 315 314 313 313 312 312 312 312 313 314 314 314 316 316 318 315 314 316 319 316 314 313 314 312 312 312 312 312 313 312 312 312 311 311 313 313 316 317 316 313 309 312 311 308 309 313 314 315 317 318 317 319 322 320 317 314 313 312 311 311
319 318 316 314 313 313 312 311 311 312 311 311 311 312 313 314 316 315 316 314 315 313 312 312 312 313 312 312 311 310 310 309 310 310 308 308 308 308 310 312 315 314 311 314 315 314 313 314 315 313 314 316 318 318 320 319 316 312 311 310 309 309 309
318 317 316 315 314 313 312 310 311 310 310 312 310 312 310 312 314 313 313 313 311 312 312 312 311 311 310 310 310 309 308 308 307 307 307 306 307 309 307 307 310 312 313 315 315 314 314 315 315 312 308 311 314 315 317 313 310 309 309 309 308 308 308
317 317 316 315 314 313 313 312 311 310 310 311 310 311 310 311 311 312 312 310 311 311 311 309 309 310 309 309 308 308 308 306 307 307 307 306 306 305 306 308 308 311 313 316 315 316 315 315 312 312 311 312 314 314 311 307 309 307 308 308 308 308 308
318 317 315 316 314 312 312 312 311 309 310 310 311 310 312 310 310 310 311 311 310 310 309 310 311 308 309 310 309 309 309 306 307 308 306 306 308 306 306 308 310 312 314 314 315 315 316 316 315 313 313 310 307 303 302 303 302 304 305 307 307 307 307
319 317 316 316 313 313 313 313 311 310 311 311 310 311 311 309 310 311 311 309 308 308 308 307 307 307 307 309 307 308 308 311 307 306 304 306 306 305 305 305 309 308 312 315 315 315 315 314 313 312 314 312 309 301 300 302 299 302 306 305 307 306 307
317 316 316 314 313 312 313 312 312 312 312 311 312 310 309 308 309 310 310 308 308 308 307 308 307 306 306 307 306 306 306 306 307 305 305 307 304 305 306 305 306 307 309 313 315 315 314 313 313 313 314 313 310 305 298 298 299 299 305 304 303 306 307
318 317 316 314 313 312 311 312 313 314 313 313 313 313 309 309 312 313 308 307 307 307 307 307 306 305 305 305 305 305 305 306 307 305 306 306 305 306 306 306 305 306 306 312 313 314 314 314 312 312 311 308 308 307 300 301 301 298 302 303 300 305 306
318 318 317 315 314 313 312 312 312 312 312 313 313 311 310 310 307 307 307 307 307 307 307 306 306 306 306 306 307 306 305 305 305 304 305 306 306 305 305 305 304 305 305 307 308 308 309 312 312 310 310 308 306 305 306 302 301 301 303 304 302 301 306
318 318 317 315 315 313 313 313 312 310 311 313 313 313 311 309 308 307 308 308 307 307 307 308 307 307 306 306 306 307 305 305 306 304 304 304 306 305 305 305 304 304 304 305 305 305 306 306 308 310 310 309 305 305 305 302 301 303 301 300 299 302 307
317 317 317 316 315 314 314 314 312 312 312 311 314 313 311 309 308 309 309 309 307 307 307 308 308 307 307 306 305 305 305 305 306 305 306 305 305 305 307 306 305 305 304 305 303 304 304 304 305 307 309 307 305 304 305 299 299 299 300 298 299 303 304
317 317 317 316 315 315 315 314 313 313 312 312 314 314 312 311 309 310 308 308 307 307 308 308 308 307 307 307 306 308 305 305 304 304 304 304 303 306 306 307 306 305 305 305 304 305 303 304 304 305 305 306 305 304 302 298 298 299 300 299 300 300 302
318 318 317 316 316 316 315 315 316 313 313 314 315 315 313 313 312 310 310 309 308 308 308 308 309 308 307 307 308 307 308 305 305 305 305 306 306 305 307 307 305 305 307 306 304 304 304 304 303 304 303 303 304 303 301 299 297 297 298 298 299 300 301
318 317 317 316 316 315 316 316 316 315 315 315 316 315 315 314 312 310 311 310 311 311 310 311 310 310 310 309 308 310 309 308 308 307 308 308 307 306 306 307 306 305 305 306 304 305 304 304 305 305 304 303 302 302 301 300 299 296 296 299 299 300 300
317 317 317 317 316 316 316 316 315 315 315 315 316 315 316 315 314 312 312 311 314 314 314 314 313 311 311 310 310 310 309 309 309 309 309 310 315 307 308 307 308 306 305 306 304 304 304 305 305 306 306 305 306 305 305 303 301 299 299 298 299 301 301
317 316 317 317 316 317 317 316 316 316 316 316 315 316 316 315 315 312 310 311 312 313 313 313 312 312 310 310 310 310 310 310 310 310 310 309 310 310 309 309 309 307 306 306 304 304 304 304 305 304 305 305 305 305 304 302 301 300 299 298 300 302 302
317 317 316 316 317 317 317 316 316 316 316 317 316 315 315 315 314 314 313 312 313 314 313 313 313 313 312 311 311 312 311 310 310 310 311 311 311 311 312 311 309 308 308 308 307 305 304 304 306 304 304 305 304 306 305 302 303 303 303 302 300 300 301
317 318 318 317 317 317 316 316 316 317 316 315 316 315 315 315 314 313 314 315 315 314 314 313 313 313 313 313 312 310 310 311 310 309 308 307 309 311 311 311 311 310 309 309 309 306 307 306 305 305 303 304 305 305 304 303 302 302 301 299 297 299 297
318 317 317 316 316 315 315 316 316 316 315 315 316 315 313 312 312 311 311 313 314 315 316 316 315 314 313 313 311 312 311 311 311 310 309 309 309 308 310 311 309 309 313 317 312 310 311 311 309 306 304 303 304 304 302 302 302 300 300 300 299 295 296
316 316 316 316 315 315 315 314 314 314 314 313 312 311 312 312 312 313 313 312 313 314 315 316 314 310 311 315 313 312 310 309 309 309 309 308 308 309 310 308 312 319 314 313 310 306 304 306 309 309 307 305 304 303 301 301 300 300 301 301 298 297 298
314 314 313 313 312 314 315 314 313 312 311 310 311 311 312 312 312 313 314 313 313 313 314 314 306 300 300 306 312 311 311 310 309 309 309 309 310 311 309 310 309 311 310 309 302 298 297 297 298 299 302 305 307 305 302 300 298 298 299 298 295 296 295
312 311 311 311 311 312 312 312 311 311 310 310 310 311 312 312 312 312 312 312 313 313 313 309 300 298 298 298 305 312 311 311 311 310 310 310 310 310 311 311 308 308 305 304 302 300 298 295 294 294 294 294 294 296 300 303 300 297 297 299 297 294 295
311 310 309 310 308 309 310 310 310 310 311 311 309 310 311 311 311 310 311 311 311 311 311 305 298 297 296 296 298 306 311 310 311 311 310 311 310 310 311 311 309 308 309 312 308 301 300 299 297 297 297 298 297 294 292 294 297 301 300 299 298 294 293
310 310 309 309 309 308 309 309 309 309 308 308 309 309 308 310 309 310 311 311 311 311 310 304 296 295 295 295 295 298 310 309 308 309 310 310 310 310 311 311 309 307 306 305 303 302 301 301 301 300 299 298 298 297 296 295 294 296 299 301 300 299 295
311 311 310 310 310 308 307 307 308 306 308 309 307 307 308 309 310 310 310 310 309 309 310 301 294 293 294 294 294 295 305 308 308 306 307 308 309 310 312 311 309 307 305 303 303 302 302 301 300 298 296 294 293 293 293 294 294 295 297 297 297 299 298
311 311 310 310 309 307 306 307 308 305 305 305 309 311 307 307 309 307 306 305 305 305 304 294 292 293 293 293 292 298 302 304 305 304 304 305 306 310 310 308 306 305 304 303 301 297 300 301 299 296 294 293 292 292 292 293 292 294 296 297 298 297 294
303 304 306 307 308 305 305 305 304 304 307 307 306 306 308 309 307 306 308 309 307 305 306 295 291 292 292 292 293 299 302 304 302 301 301 302 304 307 305 305 305 303 302 301 298 294 296 298 298 296 295 293 293 293 292 292 293 291 291 291 291 291 291
298 299 299 299 300 301 304 305 304 304 306 307 307 307 306 306 305 307 307 307 306 306 306 297 291 292 292 291 295 302 303 303 300 300 299 300 301 302 303 306 306 303 302 301 295 294 294 298 298 296 295 294 293 293 291 292 293 293 293 292 292 291 291
296 296 296 296 297 297 298 300 304 304 304 304 303 304 304 304 303 302 304 304 307 305 304 297 291 291 290 290 292 301 302 302 301 298 299 298 297 298 299 302 304 303 303 301 294 294 294 299 298 297 296 295 294 292 292 289 292 292 291 291 291 291 291
295 295 294 294 294 294 295 296 297 299 302 303 303 301 301 303 303 304 301 301 302 303 301 297 293 290 290 290 291 302 301 302 301 299 298 299 299 295 295 296 298 296 296 295 294 294 294 296 298 296 296 296 294 294 292 290 290 290 290 289 288 290 289
295 295 295 294 294 295 295 294 294 295 296 298 300 300 300 299 301 302 298 298 298 297 298 296 295 289 289 289 290 297 301 302 302 300 299 298 299 298 296 295 294 295 293 293 294 294 295 295 296 297 296 296 295 295 293 293 291 293 290 290 289 288 288
295 296 296 296 295 295 295 295 294 294 294 294 295 295 295 296 297 300 300 297 297 296 299 300 294 290 288 289 289 292 301 301 301 301 298 298 297 297 297 296 295 294 292 292 292 293 294 294 294 297 294 292 290 292 294 292 290 289 289 288 288 287 287
294 295 295 295 295 295 295 295 295 295 295 295 294 294 294 295 297 298 299 299 298 297 295 296 295 292 289 288 288 288 292 298 295 301 301 299 298 298 295 294 293 294 290 291 292 292 293 292 293 292 290 289 290 290 291 289 289 288 287 287 287 286 285
293 293 294 294 295 294 294 294 295 295 295 294 294 293 294 295 295 296 297 299 300 298 297 296 295 293 291 288 289 289 289 290 293 299 301 301 299 297 294 292 293 291 290 291 291 291 291 291 290 288 289 289 290 291 290 289 287 287 286 286 286 285 285
Wind_Speed
6 6 5 4 3 4 5 3 3 3 3 3 3 2 3 4 4 3 3 4 4 2 2 3 4 3 4 3 3 3 3 5 5 6 5 3 5 1 1 3 4 4 3 2 4 4 5 5 3 3 4 5 6 6 6 4 4 4 4 5 6 6 5
5 5 4 4 5 4 5 3 4 3 3 3 1 4 3 4 4 4 4 4 4 3 3 4 3 3 3 4 5 5 5 4 3 3 4 5 3 4 4 3 4 4 4 4 4 4 4 6 3 3 3 5 6 5 4 4 4 4 5 5 5 5 5
5 5 5 6 5 5 6 4 4 4 3 3 3 3 4 4 4 4 4 4 4 3 3 3 3 4 3 4 3 4 4 5 3 4 5 5 4 3 3 6 4 3 4 3 3 6 6 3 5 4 4 5 4 3 4 5 6 5 5 5 5 5 4
7 7 7 6 6 5 7 5 5 4 3 3 4 4 4 4 4 4 4 4 3 3 3 3 4 3 3 4 3 4 3 5 4 4 3 2 3 4 4 6 7 7 6 4 6 4 4 5 6 4 5 4 4 5 5 6 5 4 4 4 4 4 3
7 6 8 8 7 7 7 6 4 5 4 4 3 4 4 3 4 4 4 4 4 4 3 3 3 3 3 3 4 4 4 3 3 4 4 4 3 3 3 4 5 4 4 5 6 5 7 8 9 7 6 4 6 5 5 3 3 4 4 3 2 2 2
6 6 6 6 5 7 6 6 5 5 5 5 3 5 3 3 4 5 4 5 4 3 3 3 3 3 3 4 4 4 4 4 3 4 5 3 3 4 5 1 4 4 4 4 5 6 5 7 9 9 2 2 5 5 1 2 2 2 3 3 2 2 2
6 6 6 6 4 5 6 6 6 6 5 4 4 4 2 2 3 3 4 4 3 4 3 3 3 2 3 4 4 4 4 3 3 4 5 4 3 3 3 5 3 4 4 5 6 7 8 8 7 9 7 5 4 4 1 2 1 2 1 2 2 2 2
7 6 6 6 7 6 4 6 5 5 6 4 5 3 2 3 3 3 4 4 3 4 3 3 3 3 3 4 4 4 3 3 3 4 4 4 4 3 2 3 5 3 5 5 6 6 7 7 8 8 11 11 3 2 2 1 1 2 2 0 1 1 1
6 6 5 4 5 6 6 6 5 5 6 5 3 3 3 3 4 4 4 4 3 3 2 3 3 3 3 4 3 4 4 1 4 5 3 4 5 3 4 3 5 3 3 6 6 7 6 6 6 6 6 8 10 4 2 1 2 1 1 1 0 1 1
7 8 7 6 6 4 6 6 6 4 5 5 5 3 4 3 3 4 4 3 3 3 3 2 3 3 3 3 4 4 4 2 4 4 1 5 4 3 4 4 5 4 4 4 5 6 6 6 5 6 6 9 9 10 4 2 2 2 2 2 1 1 1
7 7 7 8 6 6 4 5 4 4 4 4 5 4 4 4 3 3 4 3 2 3 3 2 3 3 3 3 3 3 2 2 4 3 2 3 3 2 4 4 3 5 3 5 6 5 6 6 6 6 4 3 5 10 5 7 5 2 2 1 1 1 1
6 7 6 7 6 6 6 5 4 4 4 4 5 4 4 4 4 3 4 4 3 3 2 3 2 2 3 3 2 4 2 3 4 4 3 3 2 3 5 5 3 4 3 4 4 3 4 6 6 6 5 5 2 4 8 5 5 4 3 4 3 2 3
7 7 7 7 6 6 5 5 5 5 4 4 4 4 4 4 4 4 3 3 3 2 3 2 2 2 2 2 2 3 2 3 4 4 3 2 3 3 5 5 4 4 3 4 4 3 3 3 4 6 6 6 4 3 5 5 4 7 4 4 3 3 4
6 6 7 7 7 6 5 6 6 5 5 4 4 4 4 4 4 4 4 4 4 4 3 2 1 1 1 1 1 2 3 3 4 2 2 4 3 4 5 5 4 3 2 6 5 4 3 2 3 4 4 5 6 6 5 3 4 3 1 1 1 2 3
6 7 8 7 7 6 6 6 5 5 5 4 4 4 4 4 4 4 4 4 4 2 2 1 1 1 1 1 2 2 2 3 3 2 2 4 3 3 4 5 4 4 3 5 4 4 3 3 3 5 6 6 7 7 4 4 2 3 5 0 1 2 2
8 8 9 7 6 6 5 5 6 7 5 4 3 4 4 4 4 3 3 3 3 2 2 2 1 2 2 1 1 1 1 2 3 3 3 2 2 2 5 4 3 3 3 5 3 2 2 4 3 4 5 5 6 7 5 3 4 2 5 2 1 2 3
10 9 9 7 8 6 6 5 5 6 5 5 6 4 4 5 4 3 4 3 3 4 3 2 2 1 2 3 2 2 1 1 1 2 3 3 3 4 4 4 2 3 3 5 3 3 3 3 4 4 4 2 4 5 4 3 3 5 3 4 1 3 3
7 8 8 7 7 6 5 5 4 5 5 5 5 5 4 3 4 4 4 4 3 4 4 4 3 2 1 2 3 3 3 1 1 1 2 2 4 3 3 4 3 2 4 5 3 3 3 4 2 4 4 4 4 4 3 4 4 4 6 5 2 0 1
9 7 7 8 7 5 6 7 6 6 6 7 6 7 7 5 5 4 4 4 3 3 3 3 4 4 3 2 3 3 3 3 2 2 2 3 4 3 3 3 2 3 4 4 2 2 3 4 3 4 4 3 3 3 4 3 3 4 5 4 4 2 1
8 8 5 7 8 9 7 6 7 8 7 7 7 6 4 5 4 5 4 4 4 4 3 3 4 4 3 3 4 4 3 3 2 2 1 2 2 3 3 3 3 3 4 4 3 3 3 3 4 4 3 4 3 5 4 3 4 5 5 4 3 2 3
10 11 8 8 9 9 8 7 8 8 6 6 6 6 6 6 4 4 4 4 4 4 4 4 4 4 4 4 4 3 4 4 3 2 2 2 1 1 2 2 2 2 3 3 4 4 4 3 3 4 3 3 4 6 5 4 4 5 5 3 2 1 2
10 11 11 9 8 9 9 9 8 8 8 7 7 7 5 4 4 4 4 4 4 4 6 6 6 6 6 4 4 4 4 4 4 4 2 2 1 2 1 1 2 2 1 4 5 6 5 5 6 5 1 3 4 6 5 5 5 6 5 5 4 2 3
7 8 9 8 8 7 7 6 5 4 5 6 5 4 5 4 5 5 5 4 4 5 5 5 7 11 9 7 6 4 3 3 3 4 3 3 2 1 2 1 0 4 4 5 6 7 7 5 3 5 7 6 6 5 5 5 4 4 5 5 3 4 5
4 6 6 6 5 5 6 6 6 5 4 4 5 5 5 5 5 5 7 7 6 5 5 5 9 9 9 8 6 5 5 5 3 3 4 4 4 4 2 1 2 4 4 5 4 7 8 8 8 8 7 5 4 7 6 4 3 3 3 3 2 4 5
4 4 4 4 4 4 4 4 5 5 5 5 4 4 6 6 6 6 5 6 7 7 6 7 9 8 7 7 6 5 5 5 5 5 5 5 4 4 3 3 2 2 2 3 4 6 7 9 10 10 10 9 8 7 4 5 5 3 3 5 4 3 5
2 3 3 4 3 3 4 4 4 5 7 5 3 4 4 4 5 4 5 6 6 6 5 7 9 8 7 6 6 3 4 4 5 5 5 5 5 4 4 5 4 2 3 5 4 4 6 7 9 11 11 11 11 10 9 8 4 4 6 6 6 3 3
3 4 5 5 4 2 2 1 1 2 2 2 3 2 2 5 5 6 7 7 7 6 6 6 8 6 3 3 3 2 2 2 3 4 5 5 4 5 5 6 6 5 3 3 4 5 5 6 5 6 6 6 5 7 9 10 10 9 4 6 7 5 2
4 5 5 4 3 3 6 6 4 3 0 3 4 1 4 4 4 4 4 4 4 5 4 4 6 6 5 5 4 2 2 2 3 3 3 3 4 4 5 6 6 6 5 5 5 7 7 7 7 6 6 5 5 4 4 5 4 3 4 4 5 5 5
6 5 5 4 3 2 5 2 3 1 1 2 6 7 3 3 3 2 4 4 5 3 3 2 4 5 6 6 5 3 2 3 3 3 3 3 3 4 5 5 5 5 5 5 7 9 9 8 8 8 7 5 5 4 4 2 3 5 5 5 5 5 4
10 9 9 8 5 2 2 1 2 2 2 3 2 2 5 5 1 5 4 8 7 4 5 3 4 5 5 7 4 3 3 3 3 3 3 2 4 4 5 5 6 6 5 5 8 10 11 11 8 8 7 6 5 5 5 3 7 11 12 13 12 11 10
10 10 10 10 9 8 6 2 1 2 2 2 2 4 3 1 2 6 6 6 7 6 6 4 7 7 7 9 7 5 5 6 4 4 2 1 3 4 5 9 8 7 7 6 10 11 11 10 8 8 8 8 6 6 3 2 4 5 9 11 11 11 10
9 9 9 8 7 8 8 7 4 3 2 1 2 1 1 2 2 2 4 4 4 5 5 3 6 8 9 8 7 4 6 6 6 4 5 4 2 3 3 6 10 10 9 10 14 13 12 9 8 8 8 8 7 6 5 4 5 5 4 5 5 6 7
8 8 7 6 7 6 5 6 8 7 6 4 3 2 1 3 4 4 3 4 5 5 5 4 6 10 11 11 11 6 6 7 6 6 5 6 6 3 3 4 4 8 12 13 14 14 12 11 9 7 7 8 8 7 5 4 3 6 5 6 5 6 6
9 8 6 5 5 7 7 7 7 7 7 7 6 6 5 4 4 4 3 4 4 4 3 4 4 10 8 9 9 8 6 7 6 7 7 5 6 7 7 6 4 6 9 12 13 14 12 10 9 8 7 8 7 7 8 6 4 7 7 6 6 6 6
9 8 8 8 9 9 7 7 7 6 7 6 7 7 6 4 3 5 4 3 3 3 2 4 3 5 7 6 7 9 6 6 6 8 5 6 5 6 8 7 7 8 10 10 11 11 11 10 10 6 7 7 10 14 8 6 6 7 7 7 7 6 6
10 8 9 9 9 9 8 8 8 8 8 8 7 8 8 8 7 6 5 3 1 2 2 1 5 3 5 6 6 8 11 6 9 5 9 8 8 8 5 5 4 7 9 9 10 11 12 12 9 7 11 12 13 12 9 6 7 7 7 6 7 7 6
8 8 9 9 9 9 9 8 7 8 7 7 7 7 8 8 8 8 8 9 8 5 1 0 1 3 2 3 3 5 6 10 9 7 6 8 8 6 6 6 7 11 10 11 12 13 13 11 9 12 12 12 13 10 7 6 6 7 7 7 7 6 6
Wind_Direction
157 151 143 139 130 134 113 104 84 61 53 72 98 98 120 107 97 87 108 117 115 124 120 111 125 122 96 81 127 158 150 165 173 169 187 175 167 196 32 81 80 91 79 101 111 137 114 124 100 56 54 51 58 43 40 51 59 63 56 59 54 54 53
138 131 125 118 117 112 100 77 82 70 56 37 60 99 86 112 119 125 121 114 114 114 106 96 81 92 117 125 122 129 140 138 158 169 150 179 150 158 108 64 82 72 69 70 93 71 121 126 93 104 109 78 72 48 43 45 49 36 40 47 55 58 63
133 123 123 120 119 123 118 115 108 95 99 71 44 62 89 105 121 117 115 115 115 110 94 112 113 95 95 99 115 133 137 125 142 155 171 177 172 151 136 151 123 101 76 66 64 103 71 57 136 135 91 98 87 43 50 51 44 35 32 38 45 52 52
144 135 126 117 119 121 127 133 121 113 91 84 68 57 77 106 106 111 112 106 95 95 101 98 103 107 93 95 98 99 111 131 141 116 92 99 135 132 131 148 157 160 164 162 173 163 136 131 115 98 96 82 97 98 45 56 57 46 43 43 51 50 50
141 137 136 138 143 139 137 129 124 102 84 72 73 78 78 97 109 98 93 90 94 94 88 98 96 93 86 83 79 90 92 91 105 109 118 117 108 99 129 144 155 149 132 146 170 147 133 142 131 126 124 115 78 79 97 88 70 68 47 49 54 82 83
131 132 132 133 145 135 133 124 117 113 103 84 73 94 99 134 129 113 108 109 99 96 110 99 88 84 86 77 81 78 82 96 114 124 118 132 148 149 159 144 145 147 163 149 130 117 103 124 130 124 103 100 123 128 147 99 70 36 53 42 30 37 75
129 128 131 131 134 132 136 134 136 140 131 132 129 124 149 118 94 104 106 101 108 113 108 105 100 89 86 85 81 85 85 82 88 97 108 112 95 103 124 119 124 147 152 144 136 128 135 131 131 130 124 97 106 123 65 57 59 78 7 21 23 27 29
139 135 140 141 140 133 130 130 136 135 131 153 142 150 94 95 98 99 112 114 114 111 108 98 85 76 80 83 82 96 82 77 88 93 92 102 94 92 84 118 121 125 137 138 134 136 135 140 143 149 137 131 90 46 44 41 13 76 187 317 70 49 21
134 124 119 123 131 138 143 140 147 148 143 138 127 108 73 93 116 114 108 113 109 104 99 108 103 94 85 95 85 91 92 46 102 90 105 95 95 101 107 102 96 119 136 132 130 135 132 136 132 137 135 127 132 113 45 55 6 2 135 107 327 147 135
141 141 144 144 141 143 139 142 143 154 136 129 120 98 96 70 95 124 119 112 105 107 86 80 94 89 71 77 96 99 95 78 87 81 79 98 100 105 96 110 126 135 141 129 128 132 134 128 136 151 164 151 146 131 138 142 232 164 259 174 138 276 137
145 141 143 144 143 131 123 115 111 119 132 128 115 109 102 94 86 99 109 95 88 85 105 95 97 90 89 80 91 91 110 106 88 62 44 88 95 102 96 75 89 104 129 134 145 143 142 147 144 160 156 133 156 139 157 150 208 205 200 236 173 165 208
136 138 140 138 139 132 130 132 133 132 111 106 110 111 105 95 97 97 103 105 93 99 96 109 102 90 103 107 83 93 70 84 87 67 19 52 51 75 82 74 64 88 100 123 117 121 139 151 158 160 165 155 159 126 139 121 133 246 167 196 245 223 160
140 141 142 137 132 132 137 137 134 124 130 115 117 124 119 114 115 115 106 110 110 121 126 119 103 104 83 93 95 89 60 76 77 77 57 31 69 74 82 71 45 79 92 102 100 115 144 159 161 167 174 172 143 126 128 128 134 185 218 184 206 200 157
124 129 128 134 136 147 152 150 144 137 114 122 135 132 130 127 127 127 127 140 150 161 143 129 55 87 88 89 45 56 51 64 85 43 63 47 36 69 78 84 66 51 91 107 114 109 105 122 145 170 176 153 144 148 138 115 122 140 134 210 164 169 138
129 135 138 147 150 155 157 148 140 130 137 154 148 146 139 129 130 138 148 159 162 149 129 111 82 108 136 97 44 34 48 64 77 52 55 64 39 55 82 88 63 61 74 96 102 103 129 130 148 149 170 170 168 164 164 107 135 135 187 329 74 47 119
138 144 145 150 147 152 156 150 150 140 142 152 164 151 150 139 141 153 156 161 144 150 172 155 135 143 131 107 99 38 69 100 116 115 98 87 63 67 72 70 54 45 60 75 63 70 89 109 124 143 163 170 170 168 168 139 125 122 154 199 154 140 185
140 145 148 149 151 156 158 157 146 136 151 165 164 173 160 153 142 157 167 153 165 180 179 152 143 147 153 144 143 129 77 69 86 127 131 116 87 77 96 84 54 62 75 83 61 74 61 76 100 117 114 121 150 154 154 121 114 135 157 139 241 171 218
127 137 136 139 146 144 144 140 135 146 155 170 181 166 179 149 150 165 162 170 180 183 181 158 154 150 160 160 154 137 127 147 149 109 92 84 84 94 87 111 130 84 76 83 49 64 72 81 77 99 111 119 123 128 109 124 136 120 134 145 156 191 200
111 104 121 121 107 122 164 157 161 161 185 174 189 188 173 169 164 177 176 181 183 190 183 161 159 165 165 147 133 132 136 149 144 110 95 85 92 95 106 111 125 118 100 102 83 40 55 82 76 80 90 84 96 93 95 73 91 103 115 136 139 122 45
119 109 111 127 153 184 182 170 170 176 186 177 186 194 172 164 178 172 187 167 178 186 168 155 160 160 165 169 154 144 130 123 111 110 94 90 88 99 105 115 139 143 132 136 130 113 86 59 77 77 85 102 93 96 87 80 98 111 124 114 51 76 97
137 138 171 189 190 178 178 177 180 181 173 181 181 188 186 183 178 177 181 179 184 162 154 163 168 166 171 171 159 153 156 154 148 133 127 63 88 125 118 114 129 168 158 154 145 154 136 106 82 76 45 89 95 96 93 95 89 101 108 87 85 102 25
160 163 175 181 190 180 179 185 187 179 180 186 189 183 164 159 162 184 189 185 176 167 173 178 178 175 170 177 177 174 176 175 171 165 180 203 210 202 186 128 122 149 169 153 158 159 167 156 139 123 138 115 106 106 102 92 112 105 91 104 89 77 75
166 165 168 178 183 180 174 174 183 194 197 193 180 158 150 158 171 179 180 193 191 184 188 189 189 183 180 174 180 180 172 184 178 172 181 210 244 245 215 211 201 141 131 134 143 147 142 135 140 150 162 145 123 103 112 115 105 115 112 109 124 122 97
146 155 163 161 169 171 175 174 181 196 197 192 177 165 154 163 181 183 182 179 190 203 200 201 197 188 191 181 172 175 182 192 188 182 189 194 207 211 225 199 121 127 121 108 98 109 113 113 105 100 100 107 127 143 132 107 123 122 120 111 115 89 109
146 122 126 139 156 174 168 170 179 190 185 187 192 160 171 185 183 183 183 187 190 199 206 205 195 200 199 192 190 182 183 185 191 197 195 202 202 189 183 160 150 137 126 136 134 113 95 90 95 92 87 77 68 55 73 150 149 118 128 121 101 124 121
111 135 141 144 134 142 157 166 176 177 197 195 145 167 190 182 191 182 182 189 204 210 218 196 191 201 206 211 222 212 198 193 184 197 200 203 193 182 165 154 156 141 143 139 118 111 113 93 79 80 77 74 63 63 62 65 83 144 148 122 128 158 164
35 17 18 22 27 44 73 157 195 182 153 120 145 162 185 198 193 187 193 195 200 205 212 200 196 190 176 205 236 264 253 218 205 196 207 202 190 179 171 166 164 162 157 130 134 129 118 109 103 82 67 55 54 43 49 56 66 76 99 137 142 146 205
74 85 84 81 68 45 44 22 25 355 170 137 99 154 195 208 217 213 210 218 207 204 222 180 189 164 167 181 190 211 287 256 204 205 204 197 186 180 176 176 173 165 161 156 160 150 132 129 112 98 83 69 62 53 50 39 29 57 93 92 116 119 148
59 69 91 98 88 76 97 193 253 186 96 103 164 204 264 254 206 100 45 30 300 262 253 191 179 176 167 163 144 174 219 231 203 203 212 193 191 187 173 167 162 161 163 163 164 158 143 132 118 111 104 102 89 79 64 61 53 70 79 96 98 106 107
44 43 47 49 42 66 103 143 303 307 239 177 171 149 225 227 86 102 218 218 225 231 242 177 170 172 170 159 153 193 201 189 174 185 210 188 188 179 169 170 164 159 157 168 169 160 151 132 123 122 120 109 101 94 70 28 49 59 67 72 76 78 80
44 42 44 39 34 29 17 354 266 229 208 231 179 213 259 272 157 185 202 208 208 208 234 184 177 183 183 183 192 188 182 171 174 167 153 129 169 179 183 174 161 160 164 176 171 168 164 138 129 135 131 125 121 115 110 42 58 56 69 75 71 67 58
44 43 45 38 35 32 24 16 348 341 324 243 218 194 189 232 244 223 227 235 226 220 234 207 185 197 193 191 196 199 171 163 163 175 155 142 124 156 179 179 178 171 170 174 171 174 175 157 143 151 148 133 136 146 181 156 134 107 82 67 42 61 49
42 41 36 37 37 38 24 30 22 16 8 348 319 305 251 210 222 229 213 225 226 223 222 219 206 208 209 202 206 188 165 155 174 175 169 162 154 157 179 188 201 191 172 171 175 177 183 163 151 151 142 144 147 171 181 143 121 109 95 99 86 78 80
35 35 35 32 33 39 32 28 22 24 18 11 15 357 326 309 286 271 229 214 221 226 204 202 199 209 219 212 212 204 170 187 174 166 169 175 172 170 181 198 205 202 188 177 177 179 181 164 150 151 159 159 177 158 138 128 123 112 107 105 97 87 81
28 30 26 26 31 35 27 27 28 21 16 16 19 19 12 346 305 292 304 287 256 254 223 184 172 197 229 246 248 238 194 196 181 157 165 176 181 185 183 181 194 196 189 182 171 173 167 154 148 141 164 157 138 132 140 130 118 106 105 105 103 92 87
25 23 25 25 31 31 23 25 25 22 20 18 18 15 9 3 0 344 323 289 259 264 259 262 177 174 195 219 240 281 294 290 182 183 167 180 195 194 188 185 181 169 175 174 161 155 150 147 142 151 152 141 138 130 119 114 110 105 106 109 105 102 92
31 29 25 24 31 29 25 23 26 23 18 26 19 15 9 3 4 3 349 329 326 323 35 100 118 164 142 119 24 329 322 323 286 213 192 191 191 176 168 182 183 170 172 169 155 149 147 145 143 144 139 136 128 122 110 107 104 116 118 111 106 111 113